铱星星座 139星 (IRIDIUM 139)

导读

IRIDIUM 139是美国于2017年10月9日发射的铱星系统卫星,铱星系统是全球卫星通信网络,为用户提供全球覆盖的语音和数据通信服务。该卫星承担着补充或替换星座中失效卫星的任务,维持铱星系统的全球通信覆盖能力,服务海事、航空、偏远地区等诸多领域的通信需求。

基本信息
目录编号:
42963
目录名称:
IRIDIUM 139
国际标识:
2017-061J
轨道中心:
EARTH
卫星名称:
铱星星座 139星
卫星全名:
铱星星座 139星 (IRIDIUM 139)
卫星状态:
在轨 (已飞行3213 天)
发射日期:
2017-10-09 UTC
国别 :
美国 (US)
星等 :
--
轨道信息
数据来源 国际轨道数据 AOE轨道数据
星历时间 2026-07-27T18:43:02+0800
11小时前
查看轨道信息
2026-07-21T17:00:00+0800
6天前
查看轨道信息
半长轴 7155.795km 7155.802km
偏心率 0.0002251 0.0002122
轨道倾角 86.398° 86.397°
近地点辐角 91.421° 87.376°
升交点赤经 8.485° 11.022°
平近点角 268.725° 263.997°
近地点 776.047km 776.146km
远地点 779.269km 779.184km
周期 100.403分钟 100.403分钟
每日圈数 14.342206 14.342184
详细信息
平衡模式:
三轴稳定
覆盖范围:
全球
运营商:
铱星通信公司
运营商所在国:
美国
制造商(研发单位):
阿莱尼亚宇航公司
制造商所在国:
意大利
使用方式:
暂无
卫星简介
铱星(Iridium)是由共66个运作中的通信卫星组成的卫星通信系统。这个系统原本规划77个通信卫星,所以用原子序数为77的铱元素来命名。铱卫星允许人们使用手持型电子设备进行全球性的语音及数据通讯。该卫星仍在工作。
2D轨道图
3D轨道图
轨道高度分析图
轨道倾角分析图
轨道综合分析图
查看轨道综合分析图